#timestamp,LO_Frequency,Hit,StdDev 
1509742815.2,286047010.0,N
1509742835.0,286047006.4,N
1509742835.9,286047006.4,N
1509742855.8,286047011.8,N
1509742875.6,286047013.8,N
1509742895.4,286047009.8,N
1509742915.3,286047012.8,N
1509742935.1,286047016.4,Y
1509742955.8,286047007.5,P
1509742975.7,286047009.8,P
1509742995.5,286047011.5,P
1509743015.3,286047012.2,Y
1509743035.2,286047002.0,P
1509743055.0,286047000.9,N
1509743055.9,286047000.9,N
1509743075.7,286047003.8,N
1509743095.6,286047005.8,N
1509743115.4,286047000.0,N
1509743135.2,286046996.6,N
1509743155.1,286046997.7,N
1509743156.0,286046997.7,N
1509743175.8,286046997.2,N
1509743195.7,286046997.7,N
1509743215.5,286046997.7,N
1509743235.3,286046998.6,N
1509743255.1,286047000.5,N
1509743275.9,286047000.2,N
1509743295.7,286047002.8,N
1509743315.6,286047003.2,N
1509743335.4,286047003.2,N
1509743355.2,286047001.2,N
1509743375.1,286047001.1,N
1509743376.0,286047001.1,N
1509743395.8,286047000.1,N
1509743415.6,286047005.9,N
1509743435.5,286047004.4,N
1509743455.3,286046999.3,N
1509743475.1,286046997.7,N
1509743495.9,286046999.0,N
1509743515.7,286047002.6,N
1509743535.5,286047005.9,N
1509743555.4,286047005.8,N
1509743575.2,286047004.8,N
1509743595.0,286047007.3,N
1509743595.9,286047007.3,N
1509743615.8,286047008.4,N
1509743635.6,286047010.5,Y
1509743655.4,286047007.4,P
1509743675.3,286047009.9,P
1509743695.1,286047013.8,P
1509743715.9,286047011.5,N
1509743735.7,286047010.1,N
1509743755.5,286047010.3,N
1509743775.4,286047006.7,N
1509743795.2,286047007.1,N
1509743815.0,286047008.6,N
1509743815.9,286047008.6,N
1509743835.8,286047010.7,Y
1509743855.6,286047003.7,P
1509743875.4,286047001.8,N
1509743895.3,286047002.8,N
1509743915.1,286047002.7,N
1509743916.0,286047002.7,N
1509743935.8,286047002.6,N
1509743955.7,286047001.4,N
1509743975.5,286047004.9,N
1509743995.3,286047005.4,N
1509744015.2,286047004.6,N
1509744035.9,286047007.4,Y
1509744055.7,286047000.2,P
1509744075.6,286046997.7,N
1509744095.4,286046997.3,N
1509744115.2,286047000.7,N
1509744135.1,286047002.6,N
1509744136.0,286047002.6,N
1509744155.8,286047002.8,N
1509744175.6,286047004.2,N
1509744195.5,286047003.7,N
1509744215.3,286047004.4,N
1509744235.1,286047001.9,N
1509744255.9,286047000.5,N
1509744275.7,286047004.3,N
1509744295.5,286047003.6,N
1509744315.4,286047003.6,N
1509744335.2,286047003.3,N
1509744355.1,286047005.2,N
1509744356.0,286047005.2,N
1509744375.8,286047006.8,Y
1509744395.6,286047002.9,P
1509744415.5,286047002.1,P
1509744435.3,286047003.4,P
1509744455.1,286047003.7,Y
1509744475.9,286046999.2,P
1509744495.7,286047000.5,N
1509744515.6,286047001.4,N
1509744535.4,286047003.3,N
1509744555.2,286047005.2,Y
1509744575.1,286046997.0,P
1509744576.0,286046997.0,N
1509744595.8,286046993.5,P
1509744615.6,286046994.3,N
1509744635.5,286046989.9,Y
1509744655.3,286046991.8,P
1509744675.1,286046990.9,P
1509744695.9,286046992.3,P
1509744715.7,286046994.7,N
1509744735.5,286046996.2,N
1509744755.4,286047001.2,N
1509744775.2,286046997.7,N
1509744795.0,286047000.0,N
1509744796.0,286047000.0,N
1509744815.8,286047001.6,N
1509744835.6,286047001.5,N
1509744855.5,286046998.5,N
1509744875.3,286047002.0,N
1509744895.1,286047000.2,N
1509744915.9,286046999.6,N
1509744935.7,286046998.4,N
1509744955.5,286046998.5,N
1509744975.4,286046995.7,N
1509744995.2,286046994.4,N
1509745015.0,286046992.6,N
1509745015.9,286046992.6,N
1509745035.8,286046994.2,N
1509745055.6,286046994.4,N
1509745075.4,286046993.0,N
1509745095.3,286046994.6,N
1509745115.1,286046996.2,N
1509745116.0,286046996.2,N
1509745135.8,286046996.8,N
1509745155.7,286047000.7,N
1509745175.5,286046998.8,N
1509745195.3,286046996.8,N
1509745215.2,286046995.3,N
1509745235.9,286046995.4,N
1509745255.7,286046995.5,N
1509745275.6,286046992.1,N
1509745295.4,286046993.0,N
1509745315.2,286046990.7,Y
1509745335.1,286046993.8,P
1509745336.0,286046993.8,P
1509745355.8,286046996.0,N
1509745375.7,286046992.6,Y
1509745395.5,286046998.7,P
1509745415.3,286046999.7,N
1509745435.2,286047003.7,N
1509745455.9,286047007.4,N
1509745475.7,286047007.7,N
1509745495.6,286047009.8,N
1509745515.4,286047014.0,N
1509745535.2,286047015.4,N
1509745555.1,286047013.3,N
1509745556.0,286047013.3,N
1509745575.8,286047010.9,N
1509745595.6,286047012.9,N
1509745615.5,286047015.2,N
1509745635.3,286047010.9,N
1509745655.1,286047013.2,N
1509745675.9,286047013.3,N
1509745695.7,286047014.9,N
1509745715.5,286047015.1,N
1509745735.4,286047013.1,N
1509745755.2,286047014.5,N
1509745775.0,286047015.2,N
1509745775.9,286047015.2,N
1509745795.8,286047016.4,N
1509745815.6,286047017.1,N
1509745835.4,286047015.7,N
1509745855.3,286047021.9,Y
1509745875.1,286047009.0,P
1509745895.8,286047006.1,P
1509745915.7,286047009.2,P
1509745935.5,286047008.3,Y
1509745955.4,286046998.2,P
1509745975.2,286046996.6,N
1509745995.0,286046998.8,N
1509745995.9,286046998.8,N
1509746015.8,286046996.9,N
1509746035.6,286046999.9,N
1509746055.4,286047002.5,N
1509746075.3,286046999.7,N
1509746095.1,286047004.3,N
1509746096.0,286047004.3,N
1509746115.8,286047001.5,N
1509746135.7,286047000.4,N
1509746155.5,286047000.1,N
1509746175.3,286047001.9,N
1509746195.2,286047001.3,N
1509746215.9,286046999.9,N
1509746235.7,286046998.3,N
1509746255.6,286046999.3,N
1509746275.4,286046996.5,N
1509746295.2,286046996.3,N
1509746315.1,286046995.5,N
1509746316.0,286046995.5,N
1509746335.8,286046997.9,N
1509746355.6,286046999.8,N
1509746375.5,286047001.9,N
1509746395.3,286046994.9,N
